TimePST,TemperatureF,Dew PointF,Humidity,Sea Level PressureIn,VisibilityMPH,Wind Direction,Wind SpeedMPH,Gust SpeedMPH,PrecipitationIn,Events,Conditions,WindDirDegrees,DateUTC
12:00 AM,42.8,41.0,93,30.37,0.8,Calm,Calm,-,N/A,,Overcast,0,2013-01-31 08:00:00
12:46 AM,42.8,-9999,N/A,-9999,0.6,WNW,3.5,-,N/A,,Overcast,290,2013-01-31 08:46:00
1:00 AM,42.8,41.0,93,30.38,0.5,WNW,4.6,-,N/A,Fog,Fog,300,2013-01-31 09:00:00
1:19 AM,42.8,-9999,N/A,-9999,0.6,NNW,3.5,-,N/A,,Light Drizzle,330,2013-01-31 09:19:00
1:38 AM,42.8,-9999,N/A,-9999,0.8,NNE,3.5,-,N/A,,Light Drizzle,30,2013-01-31 09:38:00
2:00 AM,42.8,41.0,93,30.37,1.0,Calm,Calm,-,N/A,,Light Drizzle,0,2013-01-31 10:00:00
2:12 AM,42.8,-9999,N/A,-9999,2.2,NE,4.6,-,N/A,,Light Drizzle,50,2013-01-31 10:12:00
2:19 AM,42.8,-9999,N/A,-9999,6.0,Calm,Calm,-,N/A,,Light Drizzle,0,2013-01-31 10:19:00
3:00 AM,42.8,41.0,93,30.36,6.0,SSE,3.5,-,N/A,,Light Drizzle,150,2013-01-31 11:00:00
3:19 AM,42.8,-9999,N/A,-9999,12.0,Calm,Calm,-,N/A,,Mostly Cloudy,0,2013-01-31 11:19:00
4:00 AM,43,41,90,30.36,6,Calm,Calm,,,Rain,Light Drizzle,,2013-01-31 12:00:00
4:00 AM,42.8,41.0,93,30.36,6.0,Calm,Calm,-,N/A,,Overcast,0,2013-01-31 12:00:00
5:00 AM,42.8,41.0,93,30.35,4.0,ESE,5.8,-,N/A,,Overcast,110,2013-01-31 13:00:00
5:41 AM,42.8,-9999,N/A,-9999,3.0,East,5.8,-,N/A,,Overcast,100,2013-01-31 13:41:00
6:00 AM,42.8,41.0,93,30.35,2.0,East,5.8,-,N/A,,Overcast,100,2013-01-31 14:00:00
6:40 AM,42.8,-9999,N/A,-9999,2.0,East,6.9,-,N/A,,Overcast,100,2013-01-31 14:40:00
7:00 AM,42.8,41.0,93,30.33,2.0,East,8.1,-,N/A,,Overcast,100,2013-01-31 15:00:00
7:39 AM,42.8,-9999,N/A,-9999,4.0,East,11.5,-,N/A,,Overcast,90,2013-01-31 15:39:00
8:00 AM,42.8,41.0,93,30.33,4.0,East,10.4,-,N/A,,Overcast,80,2013-01-31 16:00:00
8:07 AM,42.8,-9999,N/A,-9999,4.0,East,10.4,-,N/A,Rain,Light Rain,80,2013-01-31 16:07:00
9:00 AM,44.6,41.0,87,30.33,3.0,ESE,10.4,-,N/A,Rain,Light Rain,110,2013-01-31 17:00:00
9:24 AM,44.6,-9999,N/A,-9999,4.0,ESE,11.5,-,N/A,,Overcast,110,2013-01-31 17:24:00
9:35 AM,44.6,-9999,N/A,-9999,4.0,ESE,11.5,-,N/A,Rain,Light Rain,110,2013-01-31 17:35:00
10:00 AM,44.6,42.8,93,30.33,3.0,East,8.1,-,N/A,Rain,Light Rain,100,2013-01-31 18:00:00
10:53 AM,46.4,-9999,N/A,-9999,3.0,ESE,8.1,-,N/A,,Overcast,120,2013-01-31 18:53:00
11:00 AM,46.4,44.6,93,30.32,3.0,ESE,8.1,-,N/A,,Overcast,120,2013-01-31 19:00:00
11:19 AM,46.4,-9999,N/A,-9999,3.0,SE,9.2,-,N/A,,Overcast,130,2013-01-31 19:19:00
12:00 PM,46.4,44.6,93,30.31,4.0,SE,6.9,-,N/A,,Overcast,130,2013-01-31 20:00:00
12:24 PM,46.4,-9999,N/A,-9999,3.0,ESE,6.9,-,N/A,Rain,Light Rain Showers,110,2013-01-31 20:24:00
1:00 PM,46.4,44.6,93,30.29,4.0,East,9.2,-,N/A,Rain,Light Rain Showers,100,2013-01-31 21:00:00
1:16 PM,48.2,-9999,N/A,-9999,4.0,East,6.9,-,N/A,,Overcast,100,2013-01-31 21:16:00
2:00 PM,48.2,44.6,87,30.28,8.0,ESE,5.8,-,N/A,,Overcast,110,2013-01-31 22:00:00
3:00 PM,50.0,46.4,87,30.27,12.0,SSE,9.2,-,N/A,,Mostly Cloudy,160,2013-01-31 23:00:00
4:00 PM,49,45,80,30.28,12,East,3.5,,,,Partly Cloudy,80,2013-02-01 00:00:00
4:00 PM,48.2,44.6,87,30.28,12.0,East,4.6,-,N/A,,Mostly Cloudy,80,2013-02-01 00:00:00
5:00 PM,46.4,44.6,93,30.28,10.0,East,6.9,-,N/A,,Mostly Cloudy,90,2013-02-01 01:00:00
6:00 PM,46.4,42.8,87,30.29,10.0,East,5.8,-,N/A,,Overcast,90,2013-02-01 02:00:00
6:08 PM,46.4,-9999,N/A,-9999,6.0,East,5.8,-,N/A,Rain,Light Rain,100,2013-02-01 02:08:00
6:14 PM,46.4,-9999,N/A,-9999,6.0,East,5.8,-,N/A,Rain,Rain Showers,100,2013-02-01 02:14:00
6:23 PM,46.4,-9999,N/A,-9999,6.0,ESE,8.1,-,N/A,Rain,Light Rain Showers,110,2013-02-01 02:23:00
6:31 PM,46.4,-9999,N/A,-9999,8.0,East,5.8,-,N/A,,Mostly Cloudy,100,2013-02-01 02:31:00
7:00 PM,44.6,42.8,93,30.28,8.0,ENE,5.8,-,N/A,,Mostly Cloudy,60,2013-02-01 03:00:00
8:00 PM,46.4,42.8,87,30.28,8.0,East,4.6,-,N/A,,Mostly Cloudy,90,2013-02-01 04:00:00
9:00 PM,46.4,42.8,87,30.30,8.0,North,5.8,-,N/A,,Mostly Cloudy,360,2013-02-01 05:00:00
10:00 PM,44,42,90,30.31,7,NNW,3.5,,,,Partly Cloudy,330,2013-02-01 06:00:00
10:00 PM,44.6,42.8,93,30.31,8.0,NW,3.5,-,N/A,,Overcast,310,2013-02-01 06:00:00
10:31 PM,44.6,-9999,N/A,-9999,6.0,NW,5.8,-,N/A,,Overcast,320,2013-02-01 06:31:00
11:00 PM,44.6,42.8,93,30.32,6.0,NW,5.8,-,N/A,,Overcast,320,2013-02-01 07:00:00
11:37 PM,44.6,-9999,N/A,-9999,6.0,West,5.8,-,N/A,,Overcast,280,2013-02-01 07:37:00